Regional Weather Roundup
Issued by NWS

Home | Current Version | Previous Version | Graphics & Text | Print | Product List | Glossary On
Versions: 1 2 3 4 5 6 7 8 9 10 11 12 13 14 15 16 17 18 19 20 21 22 23 24 25 26 27
000
ASUS45 KBOU 291607
RWRCO

WEATHER ROUNDUP FOR COLORADO
NATIONAL WEATHER SERVICE DENVER/BOULDER CO
1000 AM MDT SAT APR 29 2017

NOTE: "FAIR" INDICATES FEW OR NO CLOUDS BELOW 12000 FEET WITH NO
SIGNIFICANT WEATHER AND/OR OBSTRUCTIONS TO VISIBILITY.

COZ001>005-013-030-031-291700-
...NORTHWEST COLORADO...

CITY           SKY/WX    TMP DP  RH WIND       PRES   REMARKS
CRAIG          CLOUDY    37  19  48 NE7       30.10R
HAYDEN         FAIR      34  14  44 E9        30.09R WCI  26
MEEKER         PTSUNNY   37  22  54 N20       30.05R
MOUNT WERNER   NOT AVBL
STEAMBOAT SPGS CLOUDY    33  16  49 E5        30.08R WCI  28
WALDEN           N/A     25  14  63 NE14      30.11R WCI  13
$$

COZ006>008-011-291700-
...WEST CENTRAL VALLEYS...

CITY           SKY/WX    TMP DP  RH WIND       PRES   REMARKS
GRAND JUNCTION CLOUDY    47  22  37 N10       30.01R
MONTROSE       FAIR      34  33  96 NE3       30.01R
EAGLE          CLOUDY    34  12  40 CALM      30.07R
RIFLE          FAIR      42  21  43 W7        30.02R
DELTA          FAIR      43  36  74 S3        29.99R
NUCLA          CLOUDY    45  21  39 N9        29.98R
$$

COZ017>023-064>068-291700-
...SOUTHWEST COLORADO...

CITY           SKY/WX    TMP DP  RH WIND       PRES   REMARKS
DURANGO        PTSUNNY   35  26  69 E3        29.91R
CORTEZ         FAIR      33  32  96 CALM      29.93R
PAGOSA SPRINGS CLOUDY    32  23  69 CALM      29.91R
TELLURIDE      PTSUNNY   31  22  69 SW3       29.93R
WOLF CREEK PAS CLOUDY    10  10 100 N18G30    29.92R FOG     WCI  -8
$$

COZ009-010-012-014-032>034-037-058>063-291700-
...CENTRAL COLORADO...

CITY           SKY/WX    TMP DP  RH WIND       PRES   REMARKS
ASPEN          FAIR      31  15  52 CALM      29.99R
BUENA VISTA    LGT SNOW  25  19  77 CALM      30.07R
COPPER MTN     LGT SNOW  18   9  68 CALM      29.99R
BERTHOUD PASS  SNOW       5  -6  61 E15G33    30.00R VSB 1/4 WCI -13
COTTONWOOD PAS LGT SNOW  21  19  93 CALM      30.03R
GUNNISON       FAIR      32  13  45 W3        29.97R
KREMMLING      CLOUDY    34  21  60 E7        30.09S WCI  28
LEADVILLE      SNOW      16  13  88 S13       30.00R VSB 1/2 WCI   2
MONARCH PASS   CLOUDY     9   5  85 E46G54    29.95R WCI -18
SALIDA         CLOUDY    28  25  88 N6        30.14S WCI  22
SUNLIGHT       CLOUDY    18  12  79 NE7       30.02R WCI   8
WILKERSON PASS CLOUDY   N/A N/A N/A NE8       30.01S
$$

COZ069>075-291700-
...SAN LUIS VALLEY/SANGRE DE CRISTO MOUNTAINS...

CITY           SKY/WX    TMP DP  RH WIND       PRES   REMARKS
ALAMOSA        CLOUDY    31  17  56 NE14G25   29.93R WCI  21
LA VETA PASS   HVY SNOW  16  12  86 MISG      30.03R VSB 1/4
SAGUACHE       CLOUDY    32  10  40 E14G22    29.97R WCI  22
$$

COZ035-036-038>040-291700-
...NORTHERN COLORADO FRONT RANGE...

CITY           SKY/WX    TMP DP  RH WIND       PRES   REMARKS
DENVER INTL AP SNOW      30  27  88 N16       30.18R VSB 1/2 WCI  19
DMNS CITY PARK   N/A     30  29  99 NE8G17    30.19R WCI  22
AURORA         NOT AVBL
FRONT RANGE AP LGT SNOW  30  30 100 N15       30.19R VSB 3/4 WCI  19
ERIE MUNI ARPT LGT SNOW  32  31  95 N14       30.22R WCI  22
BOULDER MUN AP LGT SNOW  32  30  93 N5        30.21R WCI  27
CENTENNIAL     LGT SNOW  27  26  96 N9        30.16R VSB 1   WCI  18
BROOMFIELD     LGT SNOW  30  28  93 N12       30.19R VSB 1   WCI  21
FORT COLLINS   LGT SNOW  32  29  88 NE13      30.22R FOG     WCI  22
LONGMONT       LGT SNOW  35  31  88 N5        30.23R WCI  31
$$

COZ041-046-047-076>085-087-088-291700-
...PIKES PEAK/PALMER DIVIDE AND SOUTHERN FOOTHILLS...

CITY           SKY/WX    TMP DP  RH WIND       PRES   REMARKS
COLO. SPRINGS  LGT SNOW  30  24  78 N21       30.09S VSB 1   WCI  17
A. F. ACADEMY  LGT SNOW  27  23  85 N16       30.09F FOG     WCI  15
SCHRIEVER AFB  LGT SNOW  27  24  90 N16G28    30.09  WCI  14
ELLICOTT       SNOW     N/A N/A N/A NE23      30.06F
FALCON         LGT SNOW  27  22  82 N20G25    30.08F VSB 1   WCI  14
FORT CARSON    LGT SNOW  30  25  80 N23G29    30.08F WCI  17
LIMON          LGT SNOW  29  28  96 N15       30.12R VSB 3/4 WCI  18
MONUMENT HILL  CLOUDY    23  21  93 NE16      30.12R WCI  10
TRINIDAD       LGT SNOW  29  25  85 N17       30.06R FOG     WCI  17
$$

COZ042>045-048>051-090-091-291700-
...NORTHEAST COLORADO...

CITY           SKY/WX    TMP DP  RH WIND       PRES   REMARKS
GREELEY ARPT   FLURRIES  33  30  88 N14       30.22R WCI  23
AKRON          CLOUDY    32  27  81 N18       30.16R WCI  20
BURLINGTON     NOT AVBL
WRAY           NOT AVBL
STERLING       FAIR      37  23  56 NE15G22   30.17S
HOLYOKE        FAIR      39  28  65 N17       30.16S
FORT MORGAN    CLOUDY    34  27  77 NE21      30.20R WCI  22
$$

COZ086-089-092>099-291700-
...SOUTHEAST COLORADO...

CITY           SKY/WX    TMP DP  RH WIND       PRES   REMARKS
PUEBLO         SNOW      32  29  88 NE16      30.12S VSB 1/2 WCI  21
LA JUNTA       SNOW      33  31  92 N20       30.08F VSB 1/2 WCI  21
LAMAR          SNOW      33  31  92 N10       30.05F VSB 1/4 WCI  25
SPRINGFIELD      N/A     31  30  96 N21G30    30.01S WCI  18
$$




USA.gov is the U.S. government's official web portal to all federal, state and local government web resources and services.